sat.trackr.live / text

‹ back to catalog

STARLINK-5278

NORAD 54164 · 2022-141H

PAYLOAD ACTIVE UNKNOWN

§ Identity

Operator
Country
US
Launch date
2022-10-28
Launch site
AFWTR
Launch vehicle
Mass (kg)
RCS (m²)

Purposes: comms

External: N2YO · Heavens-Above · Gunter

§ Orbital elements

Epoch: 2026-05-25T01:23:11.270976Z

Period
95.44 min
Inclination
53.2131°
Eccentricity
0.0001136
Mean motion
15.08841208 rev/d
Perigee alt
539.0 km
Apogee alt
540.5 km
Semi-major
6,917.9 km
B*
4.1615e-5
RAAN
21.4989°
Arg perigee
93.5716°
Mean anomaly
266.5406°
Rev number
19,738

§ Raw data

STARLINK-52781 54164U 22141H   26145.05776934  .00000375  00000+0  41615-4 0  99942 54164  53.2131  21.4989 0001136  93.5716 266.5406 15.08841208197386

JSON: /api/v1/satellites/54164 · /tle

For live sub-satellite position, see the globe view (requires WebGL).

§ Visibility from observer

Set your observer location to see the next 7 days of passes ≥ 10°. The values pass through the URL so the page stays shareable.

No JS? Fill the form by hand. The geolocation button needs JavaScript.